Tiempo cada hora Dabrowice

Hoy, 25 Junio, Viernes

Tiempo Temperatura Precipitaciones Viento Presión Humedad
00:00 +18°C° 0 mm 2 mps 749 mmHg 96%
01:00 +18°C° 0 mm 2 mps 749 mmHg 97%
02:00 +18°C° 0 mm 2 mps 749 mmHg 97%
03:00 +17°C° 0 mm 2 mps 749 mmHg 97%
04:00 +17°C° 0 mm 2 mps 749 mmHg 97%
05:00 +17°C° 0 mm 3 mps 749 mmHg 94%
06:00 +18°C° 0 mm 3 mps 749 mmHg 91%
07:00 +18°C° 0 mm 4 mps 749 mmHg 88%
08:00 +19°C° 0 mm 3 mps 749 mmHg 85%
09:00 +20°C° 0 mm 3 mps 750 mmHg 82%
10:00 +20°C° 0 mm 3 mps 750 mmHg 80%
11:00 +20°C° 0.1 mm 3 mps 750 mmHg 81%
12:00 +20°C° 0.1 mm 3 mps 750 mmHg 83%
13:00 +19°C° 0.1 mm 2 mps 750 mmHg 85%
14:00 +20°C° 0 mm 3 mps 750 mmHg 79%
15:00 +21°C° 0 mm 3 mps 750 mmHg 74%
16:00 +22°C° 0 mm 3 mps 750 mmHg 68%
17:00 +21°C° 0.1 mm 3 mps 750 mmHg 73%
18:00 +21°C° 0.1 mm 2 mps 750 mmHg 77%
19:00 +20°C° 0.1 mm 2 mps 749 mmHg 81%
20:00 +19°C° 0 mm 2 mps 750 mmHg 84%
21:00 +17°C° 0 mm 2 mps 750 mmHg 88%
22:00 +16°C° 0 mm 1 mps 750 mmHg 91%
23:00 +16°C° 0 mm 2 mps 750 mmHg 90%

Mañana, 26 Junio, Sábado

Tiempo Temperatura Precipitaciones Viento Presión Humedad
00:00 +15°C° 0 mm 2 mps 751 mmHg 90%
01:00 +14°C° 0 mm 2 mps 751 mmHg 90%
02:00 +14°C° 0 mm 2 mps 751 mmHg 89%
03:00 +14°C° 0 mm 2 mps 751 mmHg 89%
04:00 +14°C° 0 mm 2 mps 751 mmHg 88%
05:00 +15°C° 0 mm 2 mps 751 mmHg 84%
06:00 +17°C° 0 mm 2 mps 751 mmHg 81%
07:00 +18°C° 0 mm 2 mps 752 mmHg 77%
08:00 +19°C° 0 mm 3 mps 752 mmHg 72%
09:00 +21°C° 0 mm 3 mps 752 mmHg 68%
10:00 +22°C° 0 mm 3 mps 752 mmHg 63%
11:00 +22°C° 0 mm 3 mps 752 mmHg 60%
12:00 +24°C° 0 mm 3 mps 752 mmHg 57%
13:00 +24°C° 0 mm 3 mps 751 mmHg 54%
14:00 +24°C° 0 mm 3 mps 751 mmHg 54%
15:00 +25°C° 0 mm 3 mps 751 mmHg 53%
16:00 +25°C° 0 mm 2 mps 751 mmHg 52%
17:00 +24°C° 0 mm 2 mps 751 mmHg 58%
18:00 +23°C° 0 mm 2 mps 751 mmHg 64%
19:00 +22°C° 0 mm 1 mps 751 mmHg 70%
20:00 +21°C° 0 mm 1 mps 751 mmHg 74%
21:00 +19°C° 0 mm 1 mps 751 mmHg 77%
22:00 +17°C° 0 mm 2 mps 751 mmHg 81%
23:00 +17°C° 0 mm 2 mps 752 mmHg 83%

Pasado mañana, 27 Junio, Domingo

Tiempo Temperatura Precipitaciones Viento Presión Humedad
00:00 +16°C° 0 mm 2 mps 752 mmHg 85%
01:00 +16°C° 0 mm 2 mps 752 mmHg 87%
02:00 +15°C° 0 mm 1 mps 752 mmHg 88%
03:00 +15°C° 0 mm 1 mps 752 mmHg 89%
04:00 +15°C° 0 mm 1 mps 752 mmHg 90%
05:00 +16°C° 0 mm 1 mps 752 mmHg 84%
06:00 +19°C° 0 mm 1 mps 752 mmHg 79%
07:00 +18°C° 0 mm 0 mps 752 mmHg 74%
08:00 +21°C° 0 mm 1 mps 752 mmHg 68%
09:00 +23°C° 0 mm 2 mps 752 mmHg 63%
10:00 +24°C° 0 mm 2 mps 752 mmHg 57%
11:00 +24°C° 0 mm 2 mps 752 mmHg 54%
12:00 +25°C° 0 mm 3 mps 752 mmHg 51%
13:00 +25°C° 0 mm 3 mps 752 mmHg 47%
14:00 +25°C° 0 mm 3 mps 752 mmHg 47%
15:00 +25°C° 0 mm 2 mps 751 mmHg 47%
16:00 +25°C° 0 mm 2 mps 751 mmHg 46%
17:00 +24°C° 0 mm 2 mps 751 mmHg 52%
18:00 +23°C° 0 mm 1 mps 751 mmHg 58%
19:00 +22°C° 0 mm 1 mps 751 mmHg 63%
20:00 +21°C° 0 mm 1 mps 751 mmHg 64%
21:00 +19°C° 0 mm 1 mps 751 mmHg 65%
22:00 +18°C° 0 mm 1 mps 751 mmHg 66%
23:00 +18°C° 0 mm 1 mps 751 mmHg 69%

28 Junio, Lunes

Tiempo Temperatura Precipitaciones Viento Presión Humedad
00:00 +16°C° 0 mm 1 mps 752 mmHg 71%
01:00 +16°C° 0 mm 1 mps 752 mmHg 73%
02:00 +15°C° 0 mm 1 mps 751 mmHg 75%
03:00 +15°C° 0 mm 1 mps 751 mmHg 77%
04:00 +15°C° 0 mm 1 mps 751 mmHg 79%
05:00 +18°C° 0 mm 1 mps 751 mmHg 75%
06:00 +19°C° 0 mm 1 mps 752 mmHg 71%
07:00 +21°C° 0 mm 1 mps 752 mmHg 67%
08:00 +22°C° 0 mm 1 mps 752 mmHg 63%
09:00 +24°C° 0 mm 2 mps 752 mmHg 58%
10:00 +25°C° 0 mm 2 mps 752 mmHg 54%
11:00 +26°C° 0 mm 2 mps 752 mmHg 51%
12:00 +26°C° 0 mm 2 mps 752 mmHg 49%
13:00 +27°C° 0 mm 3 mps 751 mmHg 47%
14:00 +27°C° 0 mm 2 mps 751 mmHg 47%
15:00 +27°C° 0 mm 2 mps 751 mmHg 47%
16:00 +27°C° 0 mm 2 mps 751 mmHg 47%
17:00 +26°C° 0 mm 2 mps 751 mmHg 53%
18:00 +25°C° 0 mm 1 mps 751 mmHg 59%
19:00 +24°C° 0 mm 1 mps 750 mmHg 65%
20:00 +23°C° 0 mm 1 mps 750 mmHg 66%
21:00 +20°C° 0 mm 2 mps 750 mmHg 68%
22:00 +19°C° 0 mm 2 mps 750 mmHg 70%
23:00 +18°C° 0 mm 2 mps 750 mmHg 73%

29 Junio, Martes

Tiempo Temperatura Precipitaciones Viento Presión Humedad
00:00 +18°C° 0 mm 2 mps 750 mmHg 76%
01:00 +17°C° 0 mm 2 mps 750 mmHg 79%
02:00 +17°C° 0 mm 2 mps 750 mmHg 79%
03:00 +18°C° 0 mm 1 mps 750 mmHg 80%
04:00 +18°C° 0 mm 1 mps 750 mmHg 81%
05:00 +18°C° 0 mm 2 mps 750 mmHg 75%
06:00 +20°C° 0 mm 2 mps 750 mmHg 70%
07:00 +23°C° 0 mm 2 mps 749 mmHg 65%
08:00 +25°C° 0 mm 2 mps 749 mmHg 59%
09:00 +26°C° 0 mm 2 mps 749 mmHg 54%
10:00 +28°C° 0 mm 2 mps 749 mmHg 49%
11:00 +28°C° 0 mm 2 mps 749 mmHg 46%
12:00 +29°C° 0 mm 2 mps 749 mmHg 44%
13:00 +29°C° 0 mm 2 mps 748 mmHg 41%
14:00 +30°C° 0 mm 2 mps 748 mmHg 40%
15:00 +30°C° 0 mm 2 mps 748 mmHg 40%
16:00 +30°C° 0 mm 1 mps 748 mmHg 40%
17:00 +28°C° 0 mm 1 mps 747 mmHg 46%
18:00 +27°C° 0 mm 1 mps 747 mmHg 52%
19:00 +26°C° 0 mm 2 mps 747 mmHg 59%
20:00 +25°C° 0 mm 2 mps 747 mmHg 59%
21:00 +23°C° 0 mm 2 mps 747 mmHg 60%
22:00 +21°C° 0 mm 2 mps 747 mmHg 60%
23:00 +21°C° 0 mm 2 mps 747 mmHg 62%

30 Junio, Miércoles

Tiempo Temperatura Precipitaciones Viento Presión Humedad
00:00 +20°C° 0 mm 2 mps 746 mmHg 63%
01:00 +20°C° 0 mm 2 mps 746 mmHg 64%
02:00 +19°C° 0 mm 2 mps 746 mmHg 66%
03:00 +20°C° 0 mm 1 mps 746 mmHg 68%
04:00 +20°C° 0 mm 1 mps 746 mmHg 70%
05:00 +21°C° 0 mm 1 mps 746 mmHg 68%
06:00 +22°C° 0 mm 1 mps 746 mmHg 66%
07:00 +24°C° 0 mm 1 mps 746 mmHg 63%
08:00 +25°C° 0 mm 1 mps 746 mmHg 61%
09:00 +26°C° 0 mm 1 mps 746 mmHg 59%
10:00 +27°C° 0 mm 1 mps 746 mmHg 57%
11:00 +27°C° 0.2 mm 2 mps 746 mmHg 61%
12:00 +26°C° 0.2 mm 3 mps 746 mmHg 66%
13:00 +25°C° 0.2 mm 3 mps 746 mmHg 70%
14:00 +26°C° 0.5 mm 4 mps 745 mmHg 68%
15:00 +26°C° 0.5 mm 4 mps 745 mmHg 66%
16:00 +26°C° 0.5 mm 4 mps 745 mmHg 64%
17:00 +25°C° 0.3 mm 5 mps 746 mmHg 69%
18:00 +22°C° 0.3 mm 5 mps 746 mmHg 74%
19:00 +20°C° 0.3 mm 5 mps 746 mmHg 78%
20:00 +19°C° 0 mm 5 mps 747 mmHg 82%
21:00 +16°C° 0 mm 5 mps 747 mmHg 85%
22:00 +15°C° 0 mm 4 mps 747 mmHg 89%
23:00 +14°C° 0 mm 4 mps 747 mmHg 91%
Mostrar más

Necesitamos Su Consentimiento

Meteoprog y nuestros Proveedores de Servicios pueden almacenar y acceder a sus datos personales como cookies, identificadores de dispositivo u otras tecnologías similares de su dispositivo y procesar dichos datos para personalizar contenido y anuncios, además de ofrecer funciones de redes sociales y analizar el tráfico.

  • Almacenar y/o acceder a información en su dispositivo

    Se puede almacenar o acceder a cookies, identificadores de dispositivo u otra información de su dispositivo para los fines anteriormente indicados.

  • Anuncios y contenido personalizados, medición de anuncios y contenido, percepciones del público, y desarrollo de productos

    Los anuncios y el contenido pueden personalizarse en base a su perfil. Se pueden añadir más datos para personalizar mejor los anuncios y contenidos. Se puede medir el rendimiento de los anuncios y contenidos. Se puede obtener la percepción sobre el público que ha visto los anuncios y contenidos. Dichos datos pueden usarse para desarrollar o mejorar la experiencia del usuario, sistemas y software.

Al hacer clic en ‘Estoy De Acuerdo’ usted permitirá el uso de las cookies, identificadores de dispositivo, balizas web u otras tecnologías similares indicadas. Su configuración puede cambiarse desde el navegador de su dispositivo.

Para ciertos fines, los intereses legítimos pueden ser considerados por encima del consentimiento. Puede leer más sobre ello en nuestra Política de Privacidad y Cookies.